THOR ABLESTAR DEB, 48822

Orbit data source: Space-Track

THOR ABLESTAR DEB, 48822 is space debris in LEO originally from a launch on Thu, 29 Jun 1961 UTC launched from the Air Force Eastern Test Range (AFETR). Debris objects in space refer to the collection of defunct objects orbiting the Earth. Examples of debris include non-operational satellites, rocket bodies, and fragments generated from explosions, collisions, or faulty payload assembly.

Loading next visibility...
Identifier
48822, 1961-015NA
Orbit
LEO
Country
Flag of USUS
Related business
Manufacturer
Unknown
Mission
Spacecraft
Bus & Motor
Unknown
Mass
Unknown
Launch date (UTC)
1961-06-29 (65 years ago)
Launch vehicle
Unknown
Launch site
Air Force Eastern Test Range (AFETR)
Object type
Payload
Rocket body
Debris
Shape & HBR
Unknown shape, 0.1 m
Radar Cross Section
Small (<0.1 m²)

Expand to show TLE details & history
Last TLE update: 1 day ago

TLE from 1 day ago
0 THOR ABLESTAR DEB
1 48822U 61015NA  26255.41312611 -.00000065  00000-0  92670-5 0  9997
2 48822  66.7167 145.5323 0120626 325.5031  33.8266 14.06064769657018
Epoch: 2026-09-12T09:54Z
TLE epoch observation values (Epoch: 2026-09-12T09:54:54.095Z)
Latitude
-0.00012°
Longitude
5.38437°
Altitude
802.618 km
Speed
7.49 km/s
True Right ascension
09h 42m 07s
True Declination
0° 00' 00"
Sunlit
Object was in daylight at epoch
Visualization orbit readout
Latitude
Unknown
Longitude
Unknown
Altitude
Unknown
Speed
Unknown
Apparent Right ascension
Unknown
Apparent Declination
Unknown
Sunlit
N/A
Visualization observer readout
Local Sidereal Time
05:38:51
Azimuth
Unknown
Elevation
Unknown
Doppler factor
Unknown
Orbital elements
Apogee altitude
958.707 km
Perigee altitude
783.814 km
Semi-major axis
7,249.397 km
Eccentricity
0.01206
Inclination
66.7167°
RAAN
145.5323°
Arg. of periapsis
325.5031°
True anomaly
34.60582°
Mean anomaly
33.8266°
Eccentric anomaly
34.21523°
Mean motion
3.51634 °/min
Orbital period
102.38 mins
BSTAR
0.000009267
Loading maneuver chart data...
Computing Atmospheric mass density...

Documentation

Showing up to 5 results
|